FW0323 Weather Reports


Display with metric or nautical units.
time (UTC)temp
F
wind
direction
speed
MPH
gust
MPH
rain 1hr
in
rain 24hr
in
rain mn
in
humidity
%
barometer
mb
20260905171551 66 68 0.0 3.0 0.00 0.02 0.02 77 1014.1
20260905170040 66 128 0.0 3.0 0.00 0.02 0.02 78 1014.3
20260905164543 65 64 0.0 2.0 0.00 0.02 0.02 79 1014.4
20260905163038 65 64 0.0 4.0 0.00 0.02 0.02 80 1014.4
20260905161536 65 64 1.0 3.0 0.00 0.02 0.02 81 1014.3
20260905160050 66 2 1.0 5.0 0.00 0.02 0.02 83 1014.2
20260905154538 65 44 2.0 7.0 0.01 0.02 0.02 83 1014.1
20260905153035 65 15 1.0 4.0 0.02 0.02 0.02 86 1014.1
20260905151532 64 40 0.0 3.0 0.02 0.02 0.02 91 1014.2
20260905150030 64 262 0.0 3.0 0.02 0.02 0.02 93 1014.0
20260905144530 64 98 0.0 4.0 0.01 0.01 0.01 89 1014.0
20260905143029 66 10 0.0 3.0 0.00 0.00 0.00 82 1013.7
20260905141525 65 338 0.0 3.0 0.00 0.00 0.00 84 1013.6
20260905140023 65 117 0.0 1.0 0.00 0.00 0.00 85 1013.5
20260905134520 64 50 1.0 2.0 0.00 0.00 0.00 85 1013.4
20260905133024 64 350 1.0 3.0 0.00 0.00 0.00 86 1013.4
20260905131516 63 91 1.0 3.0 0.00 0.00 0.00 88 1013.2
20260905130014 63 27 0.0 7.0 0.00 0.00 0.00 89 1013.1
20260905124513 62 37 0.0 2.0 0.00 0.00 0.00 90 1013.1
20260905123010 62 337 0.0 3.0 0.00 0.00 0.00 91 1012.9
20260905121509 61 44 0.0 1.0 0.00 0.00 0.00 92 1012.9
20260905120021 61 112 0.0 1.0 0.00 0.00 0.00 91 1012.8
20260905114507 61 239 0.0 1.0 0.00 0.00 0.00 92 1012.6
20260905113005 61 275 0.0 2.0 0.00 0.00 0.00 92 1012.7
20260905111504 60 292 0.0 2.0 0.00 0.00 0.00 94 1012.6
20260905110007 60 160 0.0 1.0 0.00 0.00 0.00 95 1012.4
20260905104559 60 358 0.0 1.0 0.00 0.00 0.00 96 1012.0
20260905103103 59 358 0.0 1.0 0.00 0.00 0.00 96 1012.1
20260905101559 59 358 0.0 1.0 0.00 0.00 0.00 96 1011.9
20260905100101 59 26 0.0 4.0 0.00 0.00 0.00 96 1011.9
20260905094555 59 208 0.0 1.0 0.00 0.00 0.00 97 1011.7
20260905093110 58 271 0.0 1.0 0.00 0.00 0.00 97 1011.6
20260905091556 58 271 0.0 1.0 0.00 0.00 0.00 97 1011.6
20260905090053 57 28 0.0 1.0 0.00 0.00 0.00 97 1011.6
20260905084553 57 28 0.0 1.0 0.00 0.00 0.00 96 1011.5
20260905083049 58 28 0.0 0.0 0.00 0.00 0.00 96 1011.4
20260905081548 58 28 0.0 0.0 0.00 0.00 0.00 97 1011.3
20260905080048 58 28 0.0 1.0 0.00 0.00 0.00 97 1011.1
20260905074546 58 28 0.0 0.0 0.00 0.00 0.00 96 1010.9
20260905073046 58 28 0.0 0.0 0.00 0.00 0.00 96 1011.0
20260905071547 58 28 0.0 1.0 0.00 0.00 0.00 96 1010.9
20260905070052 58 28 0.0 0.0 0.00 0.00 0.00 96 1010.9
20260905064549 58 28 0.0 0.0 0.00 0.00 0.00 95 1010.9
20260905063041 59 28 0.0 0.0 0.00 0.00 0.00 94 1010.9
20260905061538 59 28 0.0 0.0 0.00 0.00 0.00 94 1010.9
20260905060040 60 28 0.0 1.0 0.00 0.00 0.00 94 1011.0
20260905054545 60 28 0.0 0.0 0.00 0.00 0.00 93 1011.1
20260905053036 60 28 0.0 0.0 0.00 0.00 0.00 93 1011.1
20260905051541 61 28 0.0 1.0 0.00 0.00 0.00 92 1011.1
20260905050032 61 28 0.0 1.0 0.00 0.00 0.00 93 1011.3
20260905044530 61 28 0.0 1.0 0.00 0.00 0.00 92 1011.1
20260905043033 61 28 0.0 1.0 0.00 0.00 0.00 91 1011.2
20260905041527 62 28 0.0 1.0 0.00 0.00 0.00 91 1011.2
20260905040027 62 53 0.0 1.0 0.00 0.00 0.00 90 1011.1
20260905034529 62 53 0.0 0.0 0.00 0.00 0.00 90 1011.1
20260905033027 62 53 0.0 1.0 0.00 0.00 0.00 90 1011.3
20260905031523 62 53 0.0 0.0 0.00 0.00 0.00 90 1011.2
20260905030023 63 53 0.0 0.0 0.00 0.00 0.00 89 1011.3
20260905024524 63 53 0.0 1.0 0.00 0.00 0.00 88 1011.3
20260905023021 63 53 0.0 0.0 0.00 0.00 0.00 88 1011.3
20260905021534 64 53 0.0 0.0 0.00 0.00 0.00 86 1011.4
20260905020026 64 53 0.0 1.0 0.00 0.00 0.00 86 1011.5
20260905014520 64 53 0.0 1.0 0.00 0.00 0.00 85 1011.6
20260905013024 65 53 0.0 1.0 0.00 0.00 0.00 84 1011.7
20260905011519 65 53 0.0 1.0 0.00 0.00 0.00 84 1011.6
20260905010023 66 53 0.0 1.0 0.00 0.00 0.00 83 1011.4
20260905004521 66 53 0.0 1.0 0.00 0.00 0.00 83 1011.5
20260905003028 66 53 0.0 1.0 0.00 0.00 0.00 83 1011.4
20260905001518 67 53 0.0 1.0 0.00 0.00 0.00 81 1011.4
20260905000018 68 53 0.0 0.0 0.00 0.00 0.00 80 1011.2
20260904234516 68 53 0.0 0.0 0.00 0.00 0.00 77 1011.1
20260904233016 69 53 0.0 1.0 0.00 0.00 0.00 76 1011.1
20260904231515 69 340 0.0 2.0 0.00 0.00 0.00 78 1011.1
20260904230016 69 305 0.0 2.0 0.00 0.00 0.00 78 1011.3
20260904224514 70 260 0.0 1.0 0.00 0.00 0.00 74 1011.1
20260904223015 70 103 0.0 1.0 0.00 0.00 0.00 80 1010.8
20260904221533 71 102 0.0 1.0 0.00 0.00 0.00 74 1010.9
20260904220014 71 144 0.0 2.0 0.00 0.00 0.00 77 1011.0
20260904214517 72 153 0.0 2.0 0.00 0.00 0.00 76 1010.8
20260904213016 72 145 0.0 1.0 0.00 0.00 0.00 77 1010.9
20260904211512 72 138 0.0 1.0 0.00 0.00 0.00 77 1010.8
20260904210012 73 101 0.0 2.0 0.00 0.00 0.00 77 1010.7
20260904204511 73 331 1.0 3.0 0.00 0.00 0.00 75 1010.7
20260904203012 74 149 1.0 4.0 0.00 0.00 0.00 71 1010.7
20260904201514 76 110 0.0 3.0 0.00 0.00 0.00 69 1010.6
20260904200008 75 79 0.0 4.0 0.00 0.00 0.00 71 1010.7
20260904194506 75 131 0.0 3.0 0.00 0.00 0.00 70 1010.7
20260904193006 75 123 1.0 4.0 0.00 0.00 0.00 68 1010.8
20260904191506 76 113 0.0 5.0 0.00 0.00 0.00 67 1010.9
20260904190008 75 12 0.0 3.0 0.00 0.00 0.00 72 1011.1
20260904184504 76 240 1.0 3.0 0.00 0.00 0.00 70 1011.0
20260904183002 76 160 0.0 3.0 0.00 0.00 0.00 69 1011.0
20260904181502 76 191 0.0 3.0 0.00 0.00 0.00 71 1011.0
20260904180005 77 345 1.0 4.0 0.00 0.00 0.00 71 1011.1
20260904174605 78 224 1.0 3.0 0.00 0.00 0.00 71 1010.9
20260904173106 77 340 0.0 3.0 0.00 0.00 0.00 71 1011.2